Location: Clatteringshaws Loch
(55.0508°N, 4.2860°W)
Time: 00:47:36
(UTC+01:00)

ALOS - Visible Passes

Search period start: 26 August 2016 00:00
Search period end: 05 September 2016 00:00
Orbit: 684 x 687 km, 97.9° (Epoch: 25 August)

Date Brightness Start Highest point End Pass type
(mag) Time Alt. Az. Time Alt. Az. Time Alt. Az.
26 Aug 3.8 21:14:22 10° SSW 21:18:44 38° W 21:23:07 10° NNW visible
27 Aug 4.9 21:53:21 10° SW 21:56:45 20° W 22:00:10 10° NW visible
28 Aug 3.0 20:51:52 10° S 20:56:29 57° W 21:01:07 10° NNW visible
29 Aug 4.3 21:30:20 10° SSW 21:34:23 29° W 21:38:28 10° NNW visible
30 Aug 5.0 22:09:51 10° WSW 22:12:30 15° W 22:15:09 10° NW visible
31 Aug 3.6 21:07:39 10° S 21:12:05 42° W 21:16:34 10° NNW visible
01 Sep 4.7 21:46:28 10° SW 21:50:05 22° W 21:53:43 10° NW visible
02 Sep 2.8 20:45:13 10° S 20:49:51 64° WSW 20:54:32 10° NNW visible
02 Sep 5.3 22:27:03 10° W 22:28:17 11° W 22:29:31 10° WNW visible
03 Sep 4.1 21:23:33 10° SSW 21:27:43 32° W 21:31:56 10° NNW visible
04 Sep 5.0 22:02:50 10° SW 22:05:48 17° W 22:08:47 10° NW visible
